Regional Weather Roundup
Issued by NWS

Home | Current Version | Previous Version | Graphics & Text | Print | Product List | Glossary On
Versions: 1 2 3 4 5 6 7 8 9 10 11 12 13 14 15 16 17 18 19 20 21 22 23 24 25 26 27 28 29 30 31 32 33 34 35 36 37 38 39 40 41 42 43 44 45 46 47 48 49 50
000
ASUS45 KSLC 271510
RWRUT

UTAH REGIONAL WEATHER ROUNDUP
NATIONAL WEATHER SERVICE SALT LAKE CITY UT
900 AM MDT SAT MAY 27 2017

UTZ001>011-023>025-271600-

NORTHERN UTAH

CITY           SKY/WX    TMP DP  RH WIND       PRES   REMARKS
BRIGHAM CITY   SUNNY     51  37  58 CALM      30.22R
HILL AFB       SUNNY     51  38  60 E7        30.21R
LOGAN          SUNNY     49  39  68 S3        30.23R
OGDEN          SUNNY     52  36  54 SE3       30.20R
SALT LAKE CITY MOSUNNY   56  38  50 NW5       30.20R
TOOELE VALLEY  SUNNY     54  41  62 CALM      30.22R
WENDOVER       SUNNY     55  37  50 SE3       30.22R
HEBER CITY     SUNNY     48  34  57 CALM      30.20R
WEST JORDAN    SUNNY     53  45  75 NW13G18   30.21R

$$

UTZ011>015-024>027-271600-

CENTRAL/NORTHEAST UTAH

CITY           SKY/WX    TMP DP  RH WIND       PRES   REMARKS
PROVO AIRPORT  SUNNY     53  38  56 W8        30.21R
MOAB/CANYONLAN MOSUNNY   65  28  24 NW13G23   30.06R
DELTA          SUNNY     54  36  50 N6        30.19R
PRICE          SUNNY     54  32  43 N10       30.14R
ROOSEVELT      SUNNY     55  30  38 SW7       30.16R
VERNAL         MOSUNNY   59  32  36 E10       30.13R

$$

UTZ013>016-019>022-027-271600-

SOUTHERN UTAH

CITY           SKY/WX    TMP DP  RH WIND       PRES   REMARKS
BRYCE CANYON   MOSUNNY   50  31  48 N10       30.22R
CEDAR CITY     PTSUNNY   55  34  45 N14       30.17R
MILFORD        SUNNY     57  35  43 N18       30.18R
ST GEORGE      SUNNY     69  36  29 N3        30.04R
HANKSVILLE     MOSUNNY   63  30  29 NW13      30.12R
BLANDING       SUNNY     62  28  27 NW15G21   30.18R

$$

REGIONAL REPORTS     COLORADO/ARIZONA

CITY           SKY/WX    TMP DP  RH WIND       PRES   REMARKS
CRAIG, CO      CLOUDY    47  41  80 NE5       30.17R
GRAND JUNCTION PTSUNNY   61  36  39 CALM      30.08R
RIFLE, CO      CLOUDY    54  37  52 CALM      30.12R
MONTROSE, CO   CLOUDY    56  32  40 N5        30.14R
CORTEZ, CO     SUNNY     61  33  35 E3        30.11R
COLORADO CITY    N/A     66  34  30 CALM      30.13R
PAGE, AZ       SUNNY     67  33  28 NW7       30.08R
GRAND CANYON   SUNNY     59  28  30 SW10      30.19R
KINGMAN, AZ    SUNNY     72  34  24 SE5       30.02R
FLAGSTAFF, AZ  SUNNY     56  30  37 S5        30.20R

$$

REGIONAL REPORTS    NEVADA/IDAHO/WYOMING

CITY           SKY/WX    TMP DP  RH WIND       PRES   REMARKS
LAS VEGAS, NV  SUNNY     78  27  15 NE6       29.97R
ELY, NY        SUNNY     47  31  53 N9        30.23R
ELKO, NV       SUNNY     48  34  58 CALM      30.23R
POCATELLO, ID  FOG       46  44  93 NW5       30.24R VSB 3/4
BURLEY, ID     SUNNY     50  43  77 VRB3      30.21R
FORT BRIDGER,    N/A     45  34  65 W8        30.26R
EVANSTON, WY   MOSUNNY   41  35  79 N7        30.24R
ROCK SPRINGS,  CLOUDY    43  37  79 CALM      30.21R
KEMMERER, WY     N/A     41  32  70 SW6       30.23R

$$



USA.gov is the U.S. government's official web portal to all federal, state and local government web resources and services.